This is the latest recevied weather packets stored in our database for station/object KE5KUL-13. If no packets are shown the sender has not sent any weather packets the latest 10 day(s).
| Time | Temp. | Humidity | Pressure | Rain* | Wind** | Luminosity | Snow |
|---|---|---|---|---|---|---|---|
| 1777729218 | 8.33° C | 77% | 1024.7 hPa | 0 mm | - | - | - |
| 1777728618 | 7.22° C | 79% | 1024.4 hPa | 0 mm | - | - | - |
| 1777728018 | 6.67° C | 82% | 1024.1 hPa | 0 mm | - | - | - |
| 1777727418 | 5.56° C | 83% | 1024 hPa | 0 mm | - | - | - |
| 1777726818 | 5° C | 84% | 1023.9 hPa | 0 mm | - | - | - |
| 1777726218 | 4.44° C | 85% | 1023.9 hPa | 0 mm | - | - | - |
| 1777725618 | 4.44° C | 84% | 1023.6 hPa | 0 mm | - | - | - |
| 1777725018 | 3.89° C | 84% | 1023.7 hPa | 0 mm | - | - | - |
| 1777724418 | 3.89° C | 84% | 1023.6 hPa | 0 mm | - | - | - |
| 1777723818 | 3.89° C | 83% | 1023.6 hPa | 0 mm | - | - | - |
| 1777722018 | 4.44° C | 83% | 1023.7 hPa | 0 mm | - | - | - |
| 1777721418 | 4.44° C | 82% | 1023.7 hPa | 0 mm | - | - | - |
| 1777720818 | 5° C | 82% | 1023.8 hPa | 0 mm | - | - | - |
| 1777720218 | 4.44° C | 84% | 1023.7 hPa | 0 mm | - | - | - |
| 1777719617 | 4.44° C | 83% | 1023.6 hPa | 0 mm | - | - | - |
| 1777719018 | 4.44° C | 83% | 1023.4 hPa | 0 mm | - | - | - |
| 1777718418 | 4.44° C | 83% | 1023.4 hPa | 0 mm | - | - | - |
| 1777717818 | 5° C | 83% | 1023.4 hPa | 0 mm | - | - | - |
| 1777717217 | 5° C | 85% | 1023.5 hPa | 0 mm | - | - | - |
| 1777716617 | 4.44° C | 85% | 1023.3 hPa | 0 mm | - | - | - |
| 1777716017 | 4.44° C | 85% | 1023 hPa | 0 mm | - | - | - |
| 1777715417 | 4.44° C | 85% | 1022.9 hPa | 0 mm | - | - | - |
| 1777714818 | 4.44° C | 85% | 1022.8 hPa | 0 mm | - | - | - |
| 1777714217 | 4.44° C | 85% | 1022.8 hPa | 0 mm | - | - | - |
| 1777713617 | 4.44° C | 84% | 1022.7 hPa | 0 mm | - | - | - |
* Rain latest hour (hover to see other rain measurements)
** Current wind speed in m/s (hover to see current wind gust speed)